Tracking 25710 objects as of 6-Jul-2022
HD Live streaming from Space Station
objects crossing your sky now

FENGYUN 1C DEB

Track FENGYUN 1C DEB now!
10-day predictions


NORAD ID: 32332
Int'l Code: 1999-025CXZ
Perigee: 711.7 km
Apogee: 1,173.4 km
Inclination: 99.2 °
Period: 103.7 minutes
Semi major axis: 7313 km
RCS: 0.0123 m2 (small)
Launch date: May 10, 1999
Source: People's Republic of China (PRC)
Launch site: Taiyaun Space Center, China (TSC)

Note: This is SATELLITE DEBRIS
aabbcc
Your satellite tracking list
Your tracking list is empty




NASA's NSSDC Master Catalog

Two Line Element Set (TLE):
1 32332U 99025CXZ 22186.38688634  .00000935  00000-0  55082-3 0  9993
2 32332  99.2287 234.4793 0315690 125.7225 237.3740 13.88067853755565
Source of the keplerian elements: AFSPC